Location: Cabeza Gorda
(40.0667°N, 4.9667°W)
Time: 05:00:37
(UTC+00:00)

USA 32 - Pass Details

Date: 15 January 2026
Orbit: 774 x 780 km, 85.0° (Epoch: 14 February)

Event Time Altitude Azimuth Distance (km) Brightness Sun altitude
Rises 06:05:40 0° 176° (S) 3,248 7.5 -17.8°
Reaches altitude 10° 06:08:01 10° 174° (S) 2,325 6.7 -17.3°
Maximum altitude 06:13:12 69° 92° (E) 834 4.4 -16.4°
Drops below altitude 10° 06:18:25 10° 9° (N) 2,342 6.5 -15.4°
Sets 06:20:47 0° 8° (N) 3,274 7.2 -15.0°
